Regional Weather Roundup
Issued by NWS Burlington, VT

Home | Current Version | Previous Version | Text Only | Print | Product List | Glossary On
Versions: 1 2 3 4 5 6 7 8 9 10 11 12 13 14 15 16 17 18 19 20 21 22 23 24 25 26 27 28 29 30 31 32 33 34 35 36 37 38 39 40 41 42 43 44 45 46 47 48 49 50
000
ASUS41 KBTV 272030
RWRBTV
VERMONT REGIONAL WEATHER ROUNDUP
NATIONAL WEATHER SERVICE BURLINGTON VT
400 PM EDT SAT AUG 27 2016

NOTE: "FAIR" INDICATES FEW OR NO CLOUDS BELOW 12,000 FEET WITH NO
SIGNIFICANT WEATHER AND/OR OBSTRUCTIONS TO VISIBILITY.

* THESE REPORTS ARE NOT UNDER NWS QUALITY CONTROL AND/OR DO NOT
  REPORT WEATHER SUCH AS PRECIPITATION AND FOG.

VTZ001>019-272100-
_____VERMONT_____


CITY           SKY/WX    TMP DP  RH WIND       PRES   REMARKS
BURLINGTON     MOSUNNY   83  59  44 NW9       30.18F
MONTPELIER     MOSUNNY   79  59  50 N7        30.24F
MORRISVILLE    SUNNY     80  58  46 N13       30.22S
ST. JOHNSBURY*   N/A     80  56  43 MISG      30.18F
LYNDONVILLE*   FAIR      78  59  52 NW7       30.24S
MIDDLEBURY*    FAIR      81  65  58 N3        30.18F
RUTLAND*       SUNNY     81  63  54 NW8       30.19F
SPRINGFIELD    PTSUNNY   82  60  47 VRB7      30.18F
HIGHGATE*      FAIR      78  58  49 N8        30.20F
NEWPORT*       FAIR      76  55  47 NW8       30.23R
BENNINGTON     SUNNY     83  61  47 N6        30.19F
SUTTON*          N/A     75 N/A N/A MISG        N/A
GALLUP MILLS*    N/A     77 N/A N/A MISG        N/A
UNION VILLAGE*   N/A     84 N/A N/A MISG        N/A
MT. MANSFIELD*   N/A     68 N/A N/A NW9         N/A

_____LAKE CHAMPLAIN_____


CITY           SKY/WX    TMP DP  RH WIND       PRES   REMARKS
BURTON ISLAND*   N/A    N/A N/A N/A NW1         N/A
COLCHESTER RF*   N/A    N/A N/A N/A N10         N/A
DIAMOND ISL*     N/A     75  61  60 N10         N/A

$$

NYZ007-026>031-035-052-083-087-272100-
_____NORTHERN NEW YORK_____


CITY           SKY/WX    TMP DP  RH WIND       PRES   REMARKS
PLATTSBURGH    SUNNY     78  60  53 NE9G18    30.19F
SARANAC LAKE   MOSUNNY   78  57  48 N6        30.21F
MASSENA        SUNNY     80  57  45 N8        30.20S
OGDENSBURG*    SUNNY     82  61  47 NE6       30.17F
POTSDAM*       SUNNY     81  64  57 NE8       30.19S
STARK FALLS*     N/A    126 N/A N/A NW5         N/A
WATERTOWN      SUNNY     79  54  41 W6        30.17F
FT DRUM        MOSUNNY   81  61  50 VRB6      30.18S
ALBANY         MOSUNNY   85  61  44 NE6       30.16F
GLENS FALLS    SUNNY     83  62  49 CALM      30.17S

$$
NHZ002-005-011-272100-
_____NEW HAMPSHIRE_____


CITY           SKY/WX    TMP DP  RH WIND       PRES   REMARKS
LEBANON        MOSUNNY   85  61  44 VRB3      30.17F
KEENE          SUNNY     85  58  39 CALM      30.17F
MT WASHINGTON  PTSUNNY   52  50  93 W16         N/A
PLYMOUTH       FAIR      82  56  40 CALM      30.17F
WHITEFIELD     PTSUNNY   79  57  46 W5        30.21S

$$

_____REGIONAL QUEBEC LOCATIONS_____


CITY           SKY/WX    TMP DP  RH WIND       PRES   REMARKS
MONTREAL       MOSUNNY   79  55  44 VRB12     30.20S
QUEBEC CITY    MOSUNNY   75  54  46 CALM      30.22R
SHERBROOKE     SUNNY     77  57  50 W5        30.21S

_____REGIONAL ONTARIO LOCATIONS_____


CITY           SKY/WX    TMP DP  RH WIND       PRES   REMARKS
OTTAWA         MOSUNNY   81  59  47 N7        30.20S

______KEY______
VSB  - VISIBILITY IN MILES
WCI  - WIND CHILL INDEX
HX   - HEAT INDEX
$$
NNNN



USA.gov is the U.S. government's official web portal to all federal, state and local government web resources and services.